Back to catalog

DELTA 1 DEB

AliveLEO
NORAD 10306·DEBRIS·🇺🇸 United States

Launched Jul 14, 1977 from Cape Canaveral Space Force Station

Loading…

Next Passes (next 24 hours)

TLE

FreshSource: Space-Track

Epoch: Sep 14, 2026, 12:06 UTC

1 10306U 77065DC  26257.50443890  .00002915  00000-0  69608-3 0  9999
2 10306  29.1099 353.4042 0650969 211.9486 143.9972 13.68397780403283

Track DELTA 1 DEB in real time with AllMySat

Download on the App Store